COSMOS 1275 DEB, 27735

Orbit data source: Space-Track

COSMOS 1275 DEB, 27735 is space debris in LEO originally from a launch on Thu, 04 Jun 1981 UTC launched from the Plesetsk Missile And Space Complex (PKMTR). Debris objects in space refer to the collection of defunct objects orbiting the Earth. Examples of debris include non-operational satellites, rocket bodies, and fragments generated from explosions, collisions, or faulty payload assembly.

Loading next visibility...
Identifier
27735, 1981-053MQ
Orbit
LEO
Country
Flag of CISCIS
Related business
Manufacturer
Unknown
Mission
Spacecraft
Bus & Motor
Unknown
Mass
Unknown
Launch date (UTC)
1981-06-04 (45 years ago)
Launch vehicle
Unknown
Launch site
Plesetsk Missile And Space Complex (PKMTR)
Object type
Payload
Rocket body
Debris
Shape & HBR
Unknown shape, 0.1 m
Radar Cross Section
Small (<0.1 m²)

Expand to show TLE details & history
Last TLE update: 12 hours ago

TLE from 12 hours ago
0 COSMOS 1275 DEB
1 27735U 81053MQ  26034.07205041  .00001678  00000-0  14302-2 0  9999
2 27735  83.0494 314.6012 0092450 248.8150 172.0970 13.84743065606277
Epoch: 2026-02-03T01:43Z
TLE epoch observation values (Epoch: 2026-02-03T01:43:45.155Z)
Latitude
60.39563°
Longitude
167.72971°
Altitude
1,024.509 km
Speed
7.311 km/s
True Right ascension
21h 47m 42s
True Declination
60° 15' 11"
Sunlit
Object was in daylight at epoch
Visualization orbit readout
Latitude
Unknown
Longitude
Unknown
Altitude
Unknown
Speed
Unknown
Apparent Right ascension
Unknown
Apparent Declination
Unknown
Sunlit
N/A
Visualization observer readout
Local Sidereal Time
15:16:49
Azimuth
Unknown
Elevation
Unknown
Doppler factor
Unknown
Orbital elements
Apogee altitude
1,011.938 km
Perigee altitude
876.547 km
Semi-major axis
7,322.38 km
Eccentricity
0.00925
Inclination
83.0494°
RAAN
314.6012°
Arg. of periapsis
248.815°
True anomaly
172.24101°
Mean anomaly
172.097°
Eccentric anomaly
172.16917°
Mean motion
3.4639 °/min
Orbital period
103.93 mins
BSTAR
0.0014302
Loading maneuver chart data...
Computing Atmospheric mass density...
Loading historical data...
Loading historical data...
Loading historical data...
Loading historical data...
Loading historical data...
Loading historical data...
Loading historical data...

Documentation

Showing up to 5 results
|